This demonstration page uses our WeatherBlox Daily Observations layout. Learn more.

Left ArrowRight Arrow

39.12711, -84.51439

Hourly Observations for June 27, 2018

Temp ( °F °C ) Dew Point ( °F °C ) Humidity (%) Winds ( mph kmh ) Pressure ( in mb ) Visibility ( mi km ) Precip ( " mm )
12:53 am 00:53 Clear 69 20.6 68 20 96 96 S 8 13 29.88 1012 10 16 N/A
1:36 am 01:36 Mostly Cloudy 69 20.6 68 20 96 96 SSW 7 11 29.91 1013 10 16 N/A
1:53 am 01:53 Partly Cloudy 69 20.6 68 20 96 96 SSW 8 13 29.88 1012 10 16 N/A
2:53 am 02:53 Cloudy 69 20.6 68 20 96 96 N N/A 29.89 1012 10 16 N/A
3:37 am 03:37 Cloudy 69 20.6 68 20 96 96 SW 6 9 29.91 1013 10 16 N/A
3:53 am 03:53 Mostly Cloudy 68 20 68 20 100 100 N N/A 29.89 1012 10 16 N/A
4:23 am 04:23 Cloudy 68 20 68 20 100 100 SSW 6 9 29.88 1012 10 16 N/A
4:53 am 04:53 Cloudy with Light Rain 69 20.6 68 20 96 96 SSW 6 9 29.88 1012 10 16 N/A
5:50 am 05:50 Cloudy 70 21 68 20 94 94 SSW 10 17 29.91 1013 10 16 0.01 0.25
5:53 am 05:53 Cloudy 70 21.1 68 20 93 93 SSW 12 19 29.88 1012 10 16 0.01 0.25
6:03 am 06:03 Mostly Cloudy 70 21.1 68 20 93 93 SSW 12 19 29.88 1012 10 16 N/A
6:16 am 06:16 Mostly Cloudy 70 21.1 68 20 93 93 SW 14 22 29.91 1013 10 16 N/A
6:53 am 06:53 Cloudy 71 21.7 68 20 90 90 SW 13 20 29.89 1012 10 16 N/A
7:53 am 07:53 Cloudy 71 21.7 68 20 90 90 SW 12 19 29.91 1013 10 16 N/A
8:53 am 08:53 Mostly Cloudy 73 22.8 69 20.6 87 87 SW 13 20 29.90 1012 10 16 N/A
9:53 am 09:53 Cloudy 73 22.8 68 20 84 84 SW 12 19 29.89 1012 10 16 N/A
10:53 am 10:53 Mostly Cloudy 76 24.4 69 20.6 79 79 SW 10 17 29.88 1012 10 16 N/A
11:53 am 11:53 Cloudy 76 24.4 70 21.1 82 82 SSW 10 17 29.88 1012 10 16 N/A
12:12 pm 12:12 Cloudy 77 25 71 21.7 82 82 SSW 13 20 29.88 1012 10 16 N/A
12:53 pm 12:53 Cloudy 79 26.1 70 21.1 74 74 SSW 15 24 29.87 1011 10 16 N/A
1:53 pm 13:53 Mostly Cloudy 81 27.2 71 21.7 72 72 SW 15 24 29.85 1011 10 16 N/A
2:53 pm 14:53 Mostly Cloudy 82 27.8 71 21.7 69 69 SW 17 28 29.83 1010 10 16 N/A
3:53 pm 15:53 Mostly Cloudy 82 27.8 72 22.2 72 72 SW 10 17 29.80 1009 10 16 N/A
4:53 pm 16:53 Partly Cloudy 82 27.8 72 22.2 72 72 SSW 15 24 29.80 1009 10 16 N/A
5:53 pm 17:53 Cloudy 82 27.8 71 21.7 69 69 SW 10 17 29.79 1009 10 16 N/A
6:53 pm 18:53 Mostly Cloudy 81 27.2 72 22.2 74 74 SW 8 13 29.78 1009 10 16 N/A
7:53 pm 19:53 Partly Cloudy 81 27.2 70 21.1 69 69 WSW 15 24 29.78 1009 10 16 N/A
8:09 pm 20:09 Mostly Cloudy with Light Rain 79 26.1 71 21.7 77 77 N 16 26 29.83 1010 6 10 N/A
8:33 pm 20:33 Cloudy 77 25 71 21.7 82 82 NNW 8 13 29.83 1010 10 16 0.01 0.25
8:53 pm 20:53 Mostly Cloudy 75 23.9 73 22.8 94 94 N N/A 29.81 1010 10 16 0.01 0.25
9:53 pm 21:53 Partly Cloudy 73 22.8 73 22.8 100 100 N N/A 29.83 1010 8 13 N/A
10:53 pm 22:53 Clear 72 22.2 72 22.2 100 100 S 5 7 29.85 1011 9 14 N/A
11:53 pm 23:53 Cloudy 71 21.7 71 21.7 100 100 N N/A 29.87 1012 8 13 N/A

Powered by AerisWeather